Погода в Черемшанке

Россия / Алтайский край     53°11′40″N   86°08′26″E
темп.,
°C
ветер,
м/с
пор.,
м/с
влажн.,
%
обл.,
%
осадки,
мм/ч
давл.,
гПа
погр.,
м
24 июня, чт
чт2401:00+8в35958 0.2 101086
04:00+8в5129390 0.0 1006221
07:00+9ююв31186100 0.0 1005345
10:00+10в3695100 1.1 1003139
13:00+11юз3696100 3.1 1005315
16:00+13юз468697 1.8 1006766
19:00+13зсз238188 2.4 1006448
22:00+9в0090100 0.5 100710
25 июня, пт
пт2501:00+8в229430 0.5 100614
04:00+7ююв1197100 0.7 100413
07:00+9юз4119292 0.9 1006808
10:00+9ююз71296100 1.0 1006833
13:00+9юз71198100 2.1 1008780
16:00+10зюз479583 0.5 1010546
19:00+11з589483 1.6 1012656
22:00+8з239697 0.0 101449
26 июня, сб
сб2601:00+6ю229611 0.0 101520
04:00+5юв229596 0.0 101512
07:00+8ююв12945 0.0 101596
10:00+14юз117280 0.0 1014657
13:00+17з3258100 0.3 10131355
16:00+17зсз4358100 0.0 10131354
19:00+17зсз336840 0.0 1013819
22:00+11з22897 0.0 101413
27 июня, вс
вс2701:00+9ююз119098 0.0 101510
04:00+8ю2293100 0.0 101623
07:00+10ююз23906 0.0 1016118
10:00+15зюз237910 0.3 1015414
13:00+18з355918 1.1 10151563
16:00+19з456198 0.4 10141500
19:00+18зюз456742 0.6 1014767
22:00+11ююз008541 0.1 101410
28 июня, пн
пн2801:00+10юв119088 0.1 101410
04:00+9вюв119155 0.0 101310
07:00+12вюв1287100 0.0 101281
10:00+18ююв2361100 0.0 1011586
13:00+20ююз225052 0.1 10091419
16:00+21ююз3350100 0.0 10081654
19:00+18ююз2474100 0.1 1007171
22:00+15з1177100 0.1 100611